Zurück zum Katalog

STARLINK-36905

AktivKommunikationVLEO
NORAD 68176·PAYLOAD·🇺🇸 United States

Gestartet Mar 14, 2026 von Vandenberg Space Force Base

Loading…

Nächste Überflüge (nächste 24 Stunden)

TLE

AktuellSource: CelesTrak SupGP

Epoche: Sep 14, 2026, 15:16 UTC

1 68176C 26050K   26257.63659722 -.00003188  00000+0 -94202-4 0  2572
2 68176  53.1573 105.3099 0001260  98.2969 319.7170 15.34386123    18

Verfolge STARLINK-36905 in Echtzeit mit AllMySat

Download on the App Store